Location: Rounton
(54.4000°N, 1.3500°W)
Time: 22:32:28
(UTC+01:00)

Vanguard 1 - Pass Details

Date: 23 February 2024
Orbit: 653 x 3825 km, 34.2° (Epoch: 21 April)

Event Time Altitude Azimuth Distance (km) Brightness Sun altitude
Rises 03:47:13 0° 276° (W) 7,892 - -29.6°
Reaches altitude 10° 03:57:26 10° 256° (WSW) 6,918 - -28.3°
Maximum altitude 04:05:40 13° 234° (SW) 6,435 - -27.1°
Drops below altitude 10° 04:13:22 10° 212° (SSW) 6,345 - -26.1°
Exits shadow 04:15:50 - 205° (SSW) 6,404 13.8 -25.8°
Sets 04:21:54 0° 189° (S) 6,735 14.1 -24.9°
